Location: Burgberg
(50.1428°N, 11.0671°E)
Time: 04:58:58
(UTC+00:00)

Daily predictions for brighter satellites

Satellite Brightness Start Highest point End
(mag) Time Altitude Azimuth Time Altitude Azimuth Time Altitude Azimuth
Cosmos 2344 4.5 02:30:57 41° E 02:30:57 41° E 02:37:28 10° NE
ATLAS 3B R/B 3.3 03:07:45 49° NE 03:07:45 49° NE 03:14:03 10° ESE
NOSS 3-2 (C) 4.1 03:10:13 71° E 03:10:13 71° E 03:17:44 10° SE
Cosmos 1980 Rocket 3.1 03:22:10 45° ENE 03:22:10 45° ENE 03:26:34 10° NE
COSMOS 2455 3.6 03:22:49 48° ESE 03:22:49 48° ESE 03:28:14 10° NE
Cosmos 1697 Rocket 3.9 03:29:06 35° NNE 03:29:06 35° NNE 03:32:14 10° NNE
CENTAUR R/B 3.1 03:25:43 69° NNW 03:26:46 79° NE 03:35:28 10° SE
NOSS 3-2 (A) 4.3 03:29:53 55° S 03:29:53 55° S 03:36:24 10° SSE
USA 215 3.4 03:24:50 10° E 03:31:17 65° NNE 03:31:26 65° NNE
Lacrosse 5 4.3 03:32:29 14° SSE 03:34:21 17° ESE 03:37:31 10° E
Cosmos 1295 Rocket 4.4 03:45:20 10° N 03:51:34 85° ENE 03:57:42 10° S
COSMO-SKYMED 1 3.7 03:50:11 10° SE 03:53:32 42° ESE 03:53:32 42° ESE
Cosmos 2228 4.3 03:54:17 28° SE 03:55:59 40° E 04:00:05 10° NNE
ATLAS 2AS CENTAUR R/B 3.4 03:55:43 27° SSW 04:00:23 64° SE 04:08:15 10° NE
Cosmos 1703 4.4 04:09:16 42° ESE 04:09:16 42° ESE 04:12:19 10° SSE
Timation 1 Rocket 4.2 04:08:51 75° W 04:09:11 78° WSW 04:15:11 10° SSE
Meteor 2-17 Rocket 4.3 04:12:32 69° W 04:12:32 69° W 04:18:32 10° S
Cosmos 1680 Rocket 4.2 04:07:39 11° S 04:12:33 53° ESE 04:17:43 10° NNE
Cosmos 2322 Rocket 3.6 04:08:11 10° S 04:13:18 36° ESE 04:18:29 10° NE
Cosmos 962 Rocket 4.4 04:07:13 10° NNW 04:13:33 81° W 04:19:54 10° S
Cosmos 2263 Rocket 2.0 04:13:22 76° W 04:13:37 79° WSW 04:19:17 10° SSE
Cosmos 1371 Rocket 4.3 04:13:51 36° N 04:16:02 68° ENE 04:21:21 10° SSE
STARLINK-58 4.3 04:17:09 52° E 04:17:09 52° E 04:20:15 10° ENE
STARLINK-62 4.2 04:18:49 54° ENE 04:18:49 54° ENE 04:21:59 10° ENE
STARLINK-55 4.4 04:22:49 40° ENE 04:22:49 40° ENE 04:25:14 10° ENE
Meteor 1-21 Rocket 4.4 04:23:34 55° WSW 04:23:34 55° WSW 04:28:44 10° S
CZ-2C R/B 3.4 04:18:04 10° N 04:21:06 34° NNW 04:21:06 34° NNW
STARLINK-28 4.4 04:24:32 42° ENE 04:24:32 42° ENE 04:27:00 10° ENE
Cosmos 1726 4.3 04:26:37 18° NNE 04:26:37 18° NNE 04:27:36 10° NNE
Cosmos 1844 Rocket 3.9 04:20:44 15° NNW 04:24:58 38° NE 04:30:12 10° ESE
USA 116 4.4 04:21:50 10° SSE 04:26:09 57° ENE 04:28:01 28° N
SJ-12 4.4 04:24:09 10° NNE 04:28:12 59° E 04:32:14 10° S
Lacrosse 5 rocket 2.5 04:27:57 36° N 04:28:19 36° N 04:32:28 10° ENE
Cosmos 2112 Rocket 4.4 04:25:39 10° S 04:30:55 64° ESE 04:36:14 10° NNE
BREEZE-M DEB (TANK) 3.7 04:33:26 61° SSW 04:33:37 62° SSW 04:40:58 10° ESE
Cosmos 1953 Rocket 3.5 04:37:10 65° SW 04:37:10 65° SW 04:41:09 10° S
STARLINK-34 3.4 04:37:17 83° NNE 04:37:17 83° NNE 04:41:11 10° ENE
CZ-4B R/B 3.8 04:33:50 10° N 04:36:38 37° N 04:36:38 37° N
STARLINK-75 3.4 04:38:25 71° NNE 04:38:25 71° NNE 04:41:55 10° ENE
STARLINK 1031 4.4 04:38:40 34° S 04:39:25 39° SE 04:42:54 10° ENE
ALOS 2.4 04:34:44 10° NNE 04:39:26 74° ESE 04:44:05 10° S
SL-8 Rocket 3.8 04:35:32 10° NNW 04:41:43 75° W 04:47:51 10° S
STARLINK 1028 4.0 04:42:34 39° ESE 04:42:34 39° ESE 04:44:57 10° ENE
SKYMED 2 3.5 04:38:05 10° S 04:42:08 59° WSW 04:42:08 59° WSW
STARLINK 1021 4.0 04:42:48 39° ESE 04:42:48 39° ESE 04:45:10 10° ENE
STARLINK 1019 4.0 04:43:03 38° ESE 04:43:03 38° ESE 04:45:24 10° ENE
STARLINK 1012 4.0 04:43:13 39° ESE 04:43:13 39° ESE 04:45:37 10° ENE
STARLINK 1024 4.4 04:42:01 34° S 04:42:54 41° SSE 04:46:26 10° ENE
STARLINK 1010 4.0 04:43:27 40° SE 04:43:27 40° SE 04:45:51 10° ENE
STARLINK 1026 4.0 04:43:40 40° SE 04:43:40 40° SE 04:46:05 10° ENE
STARLINK 1013 3.9 04:43:53 40° SE 04:43:53 40° SE 04:46:19 10° ENE
Cosmos 1624 Rocket 3.9 04:40:45 27° NNW 04:43:41 86° WSW 04:48:53 10° SSE
STARLINK-41 3.2 04:43:44 79° N 04:43:44 79° N 04:47:28 10° ENE
STARLINK 1009 3.9 04:44:06 40° SE 04:44:06 40° SE 04:46:33 10° ENE
STARLINK-24 3.3 04:43:41 76° WNW 04:43:54 80° NNW 04:47:58 10° ENE
STARLINK 1015 3.9 04:44:19 40° SE 04:44:19 40° SE 04:46:45 10° ENE
Cosmos 2344 3.7 04:40:58 35° W 04:44:10 58° NW 04:52:49 10° NE
STARLINK 1016 3.9 04:44:32 41° SE 04:44:32 41° SE 04:46:59 10° ENE
STARLINK 1008 3.9 04:44:44 41° SE 04:44:44 41° SE 04:47:12 10° ENE
STARLINK 1025 3.9 04:45:10 41° SE 04:45:10 41° SE 04:47:39 10° ENE
STARLINK 1017 3.8 04:45:24 42° SE 04:45:24 42° SE 04:47:53 10° ENE
STARLINK 1023 3.8 04:45:36 42° SE 04:45:36 42° SE 04:48:06 10° ENE
STARLINK 1007 3.8 04:45:49 42° SE 04:45:49 42° SE 04:48:20 10° ENE
STARLINK 1048 3.8 04:46:02 43° SE 04:46:02 43° SE 04:48:34 10° ENE
STARLINK-81 3.3 04:45:36 73° W 04:45:56 82° NNW 04:49:59 10° ENE
STARLINK 1049 3.8 04:46:16 43° SE 04:46:16 43° SE 04:48:47 10° ENE
Cosmos 2278 4.3 04:45:54 37° NW 04:46:04 37° NW 04:51:21 10° NNE
STARLINK 1051 3.8 04:46:28 43° SE 04:46:28 43° SE 04:49:00 10° ENE
PSLV R/B 3.5 04:43:19 10° NNE 04:47:07 79° WNW 04:48:04 48° SSW
STARLINK-54 3.4 04:47:24 69° WNW 04:47:47 78° NNW 04:51:50 10° ENE
FENGYUN 3A 3.7 04:42:27 10° NNE 04:47:54 82° ESE 04:53:19 10° SSW
STARLINK 3.2 04:48:07 77° NW 04:48:16 79° NNW 04:52:01 10° ENE
STARLINK-77 3.4 04:48:47 67° W 04:49:15 80° NNW 04:53:18 10° ENE
STARLINK 1032 4.2 04:48:14 34° SSW 04:49:19 45° SSE 04:52:54 10° ENE
STARLINK-25 3.4 04:50:21 64° W 04:50:53 79° NNW 04:54:56 10° ENE
Nadezhda 1 Rocket 4.5 04:51:09 34° WNW 04:51:09 34° WNW 04:56:30 10° N
Cosmos 2181 Rocket 3.9 04:45:29 10° SSW 04:51:43 78° W 04:58:07 10° N
STARLINK-71 3.4 04:52:11 61° WNW 04:52:46 75° NNW 04:56:49 10° ENE
STARLINK 1011 4.1 04:51:37 33° SSW 04:52:51 47° SSE 04:56:28 10° ENE
STARLINK-79 3.4 04:53:32 59° W 04:54:11 77° NNW 04:58:14 10° ENE
SL-16 R/B 2.2 04:49:44 10° SSW 04:55:24 82° ESE 05:01:07 10° NNE
STARLINK-78 3.4 04:55:08 57° W 04:55:52 75° NNW 04:59:55 10° ENE
STARLINK 1036 4.1 04:54:50 32° SSW 04:56:12 50° SSE 04:59:51 10° ENE
STARLINK-57 3.5 04:56:50 54° W 04:57:38 73° NNW 05:01:40 10° ENE
STARLINK-61 3.6 04:57:05 52° NW 04:57:44 62° N 05:01:40 10° ENE
ATLAS 3B R/B 2.8 04:55:02 30° WNW 04:58:14 53° WSW 05:04:54 10° SSE
Cosmos 2360 Rocket 3.5 04:53:26 10° S 04:58:44 42° ESE 05:04:03 10° NE
STARLINK-49 3.5 04:58:20 52° W 04:59:11 74° NNW 05:03:14 10° ENE
Cosmos 2341 Rocket 4.3 04:53:35 10° NNW 04:59:25 42° W 05:05:12 10° SSW
Cosmos 2056 Rocket 3.5 04:55:42 20° NNW 04:59:28 68° WSW 05:04:50 10° S
STARLINK-27 3.5 04:59:55 50° W 05:00:50 73° NNW 05:04:53 10° ENE
NOSS 2-2 (C) 4.5 05:02:02 28° NNW 05:02:09 28° NNW 05:06:07 10° NNE
BREEZE-M DEB (TANK) 3.3 05:00:29 36° WSW 05:02:12 83° S 05:13:49 10° E
STARLINK 1014 3.1 05:01:48 52° SSW 05:02:16 61° SSE 05:05:18 10° ENE
STARLINK-74 3.5 05:01:29 48° W 05:02:29 72° NNW 05:06:31 10° ENE
STARLINK 1047 3.9 05:01:18 29° SW 05:02:55 55° SSE 05:06:36 10° ENE
Cosmos 1900 4.2 05:01:30 30° NW 05:03:52 72° SW 05:08:44 10° SSE
STARLINK-39 3.5 05:03:06 46° W 05:04:10 71° NNW 05:08:12 10° ENE
Cosmos 1300 4.0 05:00:59 10° SSE 05:04:35 42° E 05:08:14 10° NNE
STARLINK 1037 3.8 05:03:08 29° SW 05:04:48 56° SSE 05:08:30 10° ENE
Cosmos 1980 Rocket 2.8 05:03:58 31° WNW 05:05:19 35° NW 05:10:30 10° NNE
STARLINK 3.5 05:04:41 44° W 05:05:49 70° NNW 05:09:51 10° ENE
CZ-4B R/B 3.6 05:00:28 10° NNE 05:06:01 67° ESE 05:11:25 10° S
ADEOS Rocket 3.0 05:01:28 10° SSE 05:06:58 75° ENE 05:12:51 10° NNW
Cosmos 923 Rocket 4.2 05:03:54 22° SW 05:07:07 49° WNW 05:12:20 10° NNE
STARLINK-69 3.5 05:06:29 42° W 05:07:41 68° NNW 05:11:42 10° ENE
Orbus 7S? 4.4 05:07:24 28° WSW 05:08:04 30° SW 05:13:18 10° SSE
STARLINK 1059 3.8 05:06:24 27° SW 05:08:12 59° SSE 05:11:55 10° ENE
COSMOS 2455 3.2 05:06:00 29° W 05:08:31 43° NW 05:14:16 10° NNE
Cosmos 1844 4.2 05:03:32 10° NNW 05:09:05 59° NE 05:14:33 10° SE
STARLINK-21 3.5 05:07:53 41° W 05:09:09 69° NNW 05:13:10 10° ENE
Okean O Rocket 1.8 05:05:28 10° NNE 05:09:56 77° ESE 05:14:22 10° S
STARLINK-45 3.6 05:09:43 39° W 05:11:03 66° NNW 05:15:04 10° ENE
CZ-3 R/B 4.4 05:00:54 13° WSW 05:11:10 21° SW 05:17:31 10° S
Cosmos 1697 Rocket 3.9 05:10:50 22° NW 05:11:22 22° NW 05:15:44 10° NNE
STARLINK-80 3.7 05:10:18 37° NW 05:11:31 57° N 05:15:16 10° E
STARLINK 1057 3.7 05:09:40 26° SW 05:11:36 62° SSE 05:15:20 10° ENE
STARLINK-70 3.6 05:11:13 38° W 05:12:37 66° NNW 05:16:38 10° ENE
Cosmos 1437 3.1 05:10:17 13° N 05:12:55 58° ENE 05:15:54 10° SSE
STARLINK-76 3.6 05:12:40 36° W 05:14:08 66° NNW 05:18:10 10° ENE
FALCON 9 DEB 4.0 05:13:41 33° WSW 05:14:16 35° SW 05:17:29 10° SSE
USA 215 3.4 05:07:57 10° SE 05:14:23 60° SW 05:18:47 22° WNW
Meteor 1-16 Rocket 4.5 05:08:49 10° SW 05:14:31 49° WNW 05:20:08 10° N
Transit 2A Rocket 4.5 05:12:15 24° WSW 05:14:42 60° NW 05:19:04 10° NNE
STARLINK 1052 3.6 05:12:59 24° SW 05:15:02 65° SSE 05:18:47 10° ENE
STARLINK 1040 2.6 05:14:46 51° SW 05:15:23 80° SSE 05:18:14 10° ENE
Cosmos 1821 Rocket 4.3 05:09:12 10° N 05:15:23 69° ENE 05:21:27 10° SSE
STARLINK 3.6 05:14:14 35° W 05:15:47 66° NNW 05:19:48 10° ENE
NOSS 3-4 (A) 3.4 05:11:03 14° SW 05:16:16 71° NW 05:22:47 10° NE
NOSS 3-4 (C) 3.4 05:11:06 14° SW 05:16:22 71° NW 05:22:54 10° NE
Lacrosse 5 2.1 05:11:45 11° SW 05:16:34 70° SE 05:21:39 10° ENE
CENTAUR R/B 3.7 05:12:56 22° WNW 05:17:11 36° WSW 05:24:50 10° S
STARLINK-32 3.6 05:15:51 34° W 05:17:28 65° NNW 05:21:29 10° ENE
Cosmos 2058 Rocket 3.1 05:13:43 10° SSW 05:18:01 54° WNW 05:22:20 10° N
STARLINK 1068 3.6 05:16:16 23° SW 05:18:28 68° SSE 05:22:13 10° ENE
STARLINK-40 3.6 05:17:25 32° W 05:19:06 65° NNW 05:23:07 10° ENE
STARLINK-26 3.5 05:18:20 35° NW 05:19:26 50° N 05:22:51 10° ENE
STARLINK-42 3.4 05:18:29 34° WNW 05:19:50 60° N 05:23:31 10° ENE
STARLINK 1029 3.0 05:18:34 31° SW 05:19:52 73° SSE 05:23:00 10° ENE
Cosmos 1908 3.5 05:16:48 10° SSW 05:20:33 43° WNW 05:24:19 10° N
STARLINK-44 3.6 05:19:00 31° W 05:20:45 64° NNW 05:24:46 10° ENE
Nadezhda 3 Rocket 4.5 05:15:15 10° S 05:21:19 64° E 05:27:28 10° NNE
STARLINK-37 3.6 05:20:44 30° W 05:22:33 63° N 05:26:34 10° ENE
BREEZE M DEB (TANK) 4.1 05:12:03 20° WNW 05:22:35 72° SSW 05:26:57 10° ESE
STARLINK-36 3.6 05:22:12 29° W 05:24:05 63° N 05:28:06 10° ENE
Cosmos 2218 Rocket 4.3 05:18:06 10° NNW 05:24:08 45° W 05:30:06 10° SSW
RESURS DK-1 2.4 05:20:25 10° SSW 05:24:33 82° ESE 05:28:44 10° NNE
STARLINK 1060 3.5 05:22:53 20° WSW 05:25:20 74° SSE 05:29:06 10° ENE
Cosmos 1867 4.2 05:20:42 13° NNW 05:25:34 53° NE 05:30:54 10° ESE
STARLINK-68 3.7 05:24:00 28° W 05:25:58 61° N 05:29:57 10° ENE
Cosmos 1726 Rocket 4.2 05:22:00 10° SW 05:25:58 32° WNW 05:29:57 10° N
Cosmos 1606 Rocket 4.5 05:24:52 24° W 05:25:59 27° WNW 05:29:44 10° N
STARLINK-63 3.7 05:25:29 27° W 05:27:30 61° N 05:31:31 10° ENE
Cosmos 1076 Rocket 3.8 05:23:16 10° N 05:27:41 72° E 05:32:02 10° SSE
STARLINK 1030 3.4 05:26:00 19° WSW 05:28:35 77° SSE 05:32:20 10° ENE
STARLINK-35 3.7 05:26:58 26° W 05:29:04 61° N 05:33:04 10° ENE
PAYLOAD B 4.2 05:24:25 10° N 05:30:00 64° WNW 05:35:32 10° SSW
In-Cosmos 22 Rocket 4.4 05:25:00 10° N 05:30:22 69° ENE 05:35:39 10° SSE
STARLINK-51 3.7 05:28:33 25° W 05:30:43 61° N 05:34:43 10° ENE
COSMO-SKYMED 1 3.8 05:27:26 10° SW 05:30:46 21° W 05:30:46 21° W
Cosmos 158 Rocket 3.9 05:26:15 10° SW 05:31:03 57° WNW 05:35:59 10° NNE
STARLINK 1020 3.4 05:29:33 18° WSW 05:32:16 80° SSE 05:36:04 10° ENE
STARLINK-30 3.7 05:30:09 24° W 05:32:23 60° N 05:36:24 10° ENE
Cosmos 2228 4.0 05:31:19 16° WSW 05:33:41 25° WNW 05:37:19 10° NNW
STARLINK-72 3.7 05:31:45 23° W 05:34:03 60° N 05:38:03 10° ENE
STARLINK-64 3.6 05:32:27 24° WNW 05:34:29 57° N 05:38:13 10° ENE
Cosmos 1484 Rocket 4.3 05:32:44 10° NNW 05:34:26 17° NW 05:34:26 17° NW
STARLINK 1034 3.4 05:32:41 17° WSW 05:35:33 83° SSE 05:39:19 10° ENE
SMAP 3.6 05:30:57 10° NNE 05:35:36 62° ESE 05:40:13 10° S
STARLINK-50 3.7 05:33:21 23° W 05:35:43 60° N 05:39:43 10° ENE
Cosmos 1892 3.7 05:33:37 10° N 05:37:22 49° ENE 05:41:04 10° SSE
STARLINK-59 3.7 05:35:02 22° W 05:37:28 59° N 05:41:28 10° ENE
STARLINK-29 4.4 05:37:20 20° W 05:38:53 28° SW 05:41:56 10° SSE
STARLINK-56 3.7 05:36:29 21° W 05:38:59 59° N 05:42:59 10° ENE
METEOR-M 4.5 05:34:23 10° N 05:39:25 42° WNW 05:44:24 10° SW
Envisat 4.3 05:34:57 10° NNE 05:39:49 44° E 05:44:40 10° S
Starlink (trailer) 3.7 05:38:06 20° W 05:40:42 59° N 05:44:41 10° ENE
STARLINK-52 4.3 05:39:19 20° W 05:40:59 29° SW 05:44:04 10° SSE
Cosmos 1452 Rocket 3.5 05:36:26 10° NNW 05:41:43 77° WSW 05:46:57 10° SSE
STARLINK-48 3.7 05:39:29 20° WNW 05:42:01 60° N 05:45:52 10° E
STARLINK-38 3.7 05:39:42 20° W 05:42:21 58° N 05:46:21 10° ENE
STARLINK 1033 3.3 05:39:26 14° WSW 05:42:34 88° SSE 05:46:21 10° ENE
STARLINK-65 3.7 05:41:16 19° W 05:44:00 58° N 05:47:59 10° ENE
STARLINK-53 3.8 05:42:58 18° W 05:45:46 57° N 05:49:45 10° ENE
Cosmos 2278 Rocket 3.4 05:41:46 10° NNW 05:47:06 40° NE 05:52:24 10° ESE
Cosmos 2151 4.1 05:43:06 10° N 05:47:15 46° ENE 05:51:24 10° SSE
Cosmos 1934 Rocket 4.2 05:43:29 10° N 05:49:38 77° E 05:55:50 10° SSE
ATLAS 2AS CENTAUR R/B 3.3 05:44:00 10° WSW 05:51:48 50° NNW 05:59:27 10° NE
Cosmos 2239 Rocket 4.5 05:48:06 10° NNW 05:54:23 74° W 06:00:34 10° S
Cosmos 1680 Rocket 4.3 05:50:19 10° WSW 05:54:57 30° NW 05:59:37 10° N
STARLINK-58 3.8 05:52:13 15° W 05:55:22 56° N 05:59:19 10° ENE
STARLINK-33 3.6 05:53:13 16° WNW 05:55:54 51° N 05:59:24 10° ENE
Cosmos 1825 4.0 05:52:38 10° N 05:56:04 32° ENE 05:59:28 10° SE
Cosmos 2263 Rocket 3.8 05:55:07 13° W 05:56:37 14° W 05:59:26 10° SW
STARLINK-62 3.8 05:53:53 15° W 05:57:07 56° N 06:01:03 10° ENE
Cosmos 2322 Rocket 2.5 05:51:48 10° SW 05:57:16 46° NW 06:02:47 10° NNE
STARLINK-66 3.6 05:54:47 15° WNW 05:57:32 51° N 06:01:02 10° ENE
STARLINK-43 3.3 05:54:39 15° WNW 05:57:40 78° SSW 06:01:23 10° ESE
STARLINK-55 3.6 05:56:25 15° WNW 05:59:14 51° N 06:02:43 10° ENE
CZ-2C R/B 4.4 05:59:17 10° NW 06:00:10 10° NW 06:00:30 10° NW
STARLINK-28 3.6 05:58:07 14° WNW 06:01:01 51° N 06:04:30 10° ENE
STARLINK 1035 3.1 05:57:35 10° WSW 06:01:02 74° NNW 06:04:35 10° ENE
NOAA 6 4.4 05:56:31 10° N 06:01:24 42° WNW 06:06:16 10° SW
Iridium 96 3.6 06:01:27 10° SSW 06:03:49 50° W 06:06:07 10° N
STARLINK 1027 3.2 06:01:43 10° W 06:05:16 70° NNW 06:08:48 10° ENE
Lacrosse 4 Rocket 3.9 06:04:57 10° N 06:07:12 14° NNE 06:09:28 10° ENE
Cosmos 1340 Rocket 2.7 06:03:45 10° SSW 06:07:38 65° WNW 06:11:33 10° N
STARLINK 1044 3.4 06:03:53 10° WSW 06:07:41 73° NNW 06:11:29 10° ENE
Lacrosse 5 rocket 1.6 06:03:36 11° NW 06:08:03 75° NNE 06:12:25 10° ESE
Cosmos 1766 Rocket 4.0 06:04:35 10° N 06:08:55 64° ENE 06:13:12 10° SSE
Cosmos 1844 Rocket 3.1 06:03:37 10° NW 06:08:58 46° WSW 06:14:19 10° S
STARLINK 1055 4.4 06:07:09 10° SW 06:11:12 54° SSE 06:15:15 10° ENE
Cosmos 2058 3.2 06:07:32 10° NNW 06:11:36 47° W 06:15:39 10° SSW
Cosmos 1408 3.0 06:09:10 10° N 06:12:54 68° ENE 06:16:35 10° SSE
IRS-1C Rocket 4.1 06:10:34 10° NNE 06:15:51 76° WNW 06:21:07 10° SSW
STARLINK 1022 4.3 06:12:05 10° SW 06:16:09 58° SSE 06:20:14 10° ENE
STARLINK-34 3.8 06:12:24 10° WNW 06:16:19 55° N 06:20:15 10° E
ALOS 3.7 06:13:12 10° NNW 06:16:20 18° WNW 06:19:26 10° W
Cosmos 2333 Rocket 3.0 06:10:44 10° SSW 06:16:24 61° ESE 06:22:05 10° NE
STARLINK-75 3.7 06:12:49 10° WNW 06:16:33 54° N 06:20:16 10° E
STARLINK 1031 3.4 06:13:34 10° W 06:17:16 68° NNW 06:21:00 10° ENE
STARLINK 1028 2.9 06:14:24 10° W 06:17:17 54° NNW 06:20:11 10° ENE
NOAA 12 4.2 06:11:57 10° NNE 06:17:18 89° ESE 06:22:37 10° SSW
CZ-2C R/B 3.7 06:12:49 10° S 06:17:20 63° WSW 06:21:48 10° NNW
STARLINK 1021 2.9 06:14:38 10° W 06:17:30 54° NNW 06:20:24 10° ENE
Cosmos-2242 3.3 06:13:18 10° S 06:17:41 79° E 06:22:05 10° NNE
STARLINK 1019 2.9 06:14:53 10° W 06:17:45 54° NNW 06:20:36 10° ENE
STARLINK 1012 2.9 06:15:04 10° W 06:17:57 54° N 06:20:50 10° ENE
STARLINK 1010 2.9 06:15:19 10° W 06:18:12 54° NNW 06:21:05 10° ENE
STARLINK 1026 2.9 06:15:32 10° W 06:18:26 54° N 06:21:19 10° ENE
STARLINK 1013 2.9 06:15:46 10° W 06:18:39 54° NNW 06:21:32 10° ENE
STARLINK 1009 2.9 06:16:00 10° W 06:18:53 54° NNW 06:21:46 10° ENE
STARLINK 1015 2.9 06:16:12 10° W 06:19:05 53° N 06:21:58 10° ENE
STARLINK 1016 2.9 06:16:27 10° W 06:19:19 53° NNW 06:22:13 10° ENE
STARLINK 1008 2.9 06:16:39 10° W 06:19:32 53° N 06:22:25 10° ENE
STARLINK 1025 2.9 06:17:06 10° W 06:19:58 53° NNW 06:22:52 10° ENE
STARLINK 1017 2.9 06:17:21 10° W 06:20:13 53° NNW 06:23:06 10° ENE
STARLINK 1023 3.0 06:17:33 10° W 06:20:26 53° N 06:23:20 10° ENE
STARLINK 1007 2.9 06:17:47 10° W 06:20:40 53° N 06:23:33 10° ENE
STARLINK 1024 3.4 06:17:07 10° W 06:20:49 67° NNW 06:24:33 10° ENE
STARLINK 1048 2.9 06:18:01 10° W 06:20:53 53° NNW 06:23:47 10° ENE
STARLINK 1042 4.2 06:17:02 10° SW 06:21:07 62° SSE 06:25:13 10° ENE
STARLINK 1049 3.0 06:18:15 10° W 06:21:08 53° N 06:24:01 10° ENE
Cosmos 332 Rocket 3.8 06:16:29 10° NNW 06:21:19 89° WSW 06:26:08 10° SSE
STARLINK 1051 3.0 06:18:27 10° W 06:21:20 53° N 06:24:13 10° ENE
Feng Yun 1-1 Rocket 4.4 06:15:29 10° NNE 06:21:25 76° WNW 06:27:15 10° SSW
STARLINK-41 3.7 06:18:21 10° WNW 06:22:04 53° N 06:25:47 10° E
Cosmos 371 Rocket 3.3 06:17:22 10° NNW 06:22:13 71° WSW 06:27:01 10° SSE
STARLINK-24 3.8 06:19:20 10° WNW 06:23:19 56° N 06:27:17 10° E
Cosmos 1408 Rocket 4.2 06:19:19 10° N 06:23:35 57° ENE 06:27:49 10° SSE
STARLINK-81 3.8 06:21:21 10° WNW 06:25:20 56° N 06:29:19 10° E
Helios 1A Rocket 3.9 06:22:10 10° N 06:25:38 26° WNW 06:29:06 10° WSW
STARLINK 1056 4.1 06:21:58 10° SW 06:26:05 65° SSE 06:30:12 10° ENE
Cosmos 1943 Rocket 4.3 06:23:04 10° N 06:26:32 16° NNE 06:29:58 10° ENE
Cosmos 1331 Rocket 4.1 06:22:07 10° NNW 06:27:28 90° WSW 06:32:46 10° SSE
